| time (UTC) | temp F | wind direction | speed knots | gust knots | rain 1hr in | rain 24hr in | rain mn in | humidity % | barometer mb |
| 20260507060506 | 47 | 267 | 0.9 | 3.5 | 0.00 | 0.34 | 0.00 | 93 | 1006.7 |
| 20260507060012 | 47 | 276 | 0.9 | 3.5 | 0.00 | 0.34 | 0.00 | 93 | 1006.7 |
| 20260507055507 | 47 | 286 | 0.0 | 2.6 | 0.00 | 0.34 | 0.00 | 93 | 1006.6 |
| 20260507055015 | 47 | 285 | 0.9 | 3.5 | 0.00 | 0.34 | 0.00 | 93 | 1006.8 |
| 20260507054526 | 47 | 297 | 0.9 | 3.5 | 0.00 | 0.34 | 0.00 | 93 | 1006.7 |
| 20260507054006 | 47 | 289 | 1.7 | 3.5 | 0.00 | 0.35 | 0.00 | 93 | 1006.8 |
| 20260507053507 | 47 | 185 | 0.0 | 1.7 | 0.00 | 0.35 | 0.00 | 93 | 1006.6 |
| 20260507053028 | 47 | 121 | 0.0 | 1.7 | 0.00 | 0.35 | 0.00 | 92 | 1006.5 |
| 20260507052506 | 47 | 315 | 0.0 | 1.7 | 0.00 | 0.35 | 0.00 | 92 | 1006.3 |
| 20260507052007 | 47 | 315 | 0.0 | 2.6 | 0.00 | 0.35 | 0.00 | 92 | 1006.3 |
| 20260507051514 | 47 | 117 | 0.0 | 2.6 | 0.00 | 0.35 | 0.00 | 92 | 1006.2 |
| 20260507051006 | 47 | 81 | 0.9 | 3.5 | 0.00 | 0.35 | 0.00 | 92 | 1006.4 |
| 20260507050505 | 47 | 101 | 0.0 | 3.5 | 0.00 | 0.35 | 0.00 | 92 | 1006.3 |
| 20260507050026 | 47 | 346 | 0.0 | 3.5 | 0.00 | 0.35 | 0.00 | 92 | 1006.1 |
| 20260507045508 | 47 | 266 | 0.0 | 5.2 | 0.00 | 0.35 | 0.00 | 92 | 1006.1 |
| 20260507045007 | 47 | 266 | 0.9 | 5.2 | 0.00 | 0.35 | 0.00 | 92 | 1006.0 |
| 20260507044520 | 48 | 263 | 0.9 | 12.2 | 0.00 | 0.35 | 0.00 | 92 | 1006.0 |
| 20260507044007 | 48 | 29 | 0.9 | 12.2 | 0.00 | 0.35 | 0.00 | 92 | 1006.3 |
| 20260507043507 | 48 | 285 | 1.7 | 5.2 | 0.00 | 0.35 | 0.00 | 92 | 1006.5 |
| 20260507043022 | 48 | 250 | 0.9 | 4.3 | 0.00 | 0.35 | 0.00 | 92 | 1006.3 |
| 20260507042511 | 49 | 288 | 0.9 | 5.2 | 0.00 | 0.35 | 0.00 | 92 | 1006.4 |
| 20260507042010 | 49 | 271 | 0.9 | 6.1 | 0.01 | 0.35 | 0.00 | 93 | 1006.4 |
| 20260507041528 | 49 | 328 | 0.9 | 6.1 | 0.02 | 0.35 | 0.00 | 93 | 1006.4 |
| 20260507041008 | 49 | 254 | 0.9 | 3.5 | 0.03 | 0.35 | 0.00 | 93 | 1006.2 |
| 20260507040506 | 50 | 248 | 0.9 | 5.2 | 0.03 | 0.35 | 0.00 | 93 | 1006.2 |
| 20260507040007 | 50 | 270 | 1.7 | 5.2 | 0.04 | 0.35 | 0.00 | 93 | 1006.2 |
| 20260507035508 | 50 | 101 | 0.9 | 5.2 | 0.05 | 0.35 | 0.35 | 93 | 1006.1 |
| 20260507035005 | 50 | 298 | 0.9 | 5.2 | 0.05 | 0.35 | 0.35 | 93 | 1006.0 |
| 20260507034503 | 50 | 300 | 0.9 | 3.5 | 0.05 | 0.35 | 0.35 | 93 | 1006.1 |
| 20260507034003 | 51 | 263 | 0.9 | 3.5 | 0.05 | 0.35 | 0.35 | 93 | 1006.2 |
| 20260507033502 | 51 | 249 | 0.9 | 1.7 | 0.05 | 0.35 | 0.35 | 93 | 1006.1 |
| 20260507033004 | 51 | 281 | 0.0 | 2.6 | 0.05 | 0.35 | 0.35 | 93 | 1006.0 |
| 20260507032504 | 51 | 284 | 0.9 | 3.5 | 0.05 | 0.35 | 0.35 | 92 | 1006.1 |
| 20260507032003 | 51 | 277 | 0.9 | 3.5 | 0.04 | 0.34 | 0.34 | 92 | 1006.4 |
| 20260507031507 | 52 | 256 | 0.0 | 2.6 | 0.03 | 0.33 | 0.33 | 92 | 1006.4 |
| 20260507031005 | 52 | 258 | 0.0 | 2.6 | 0.02 | 0.32 | 0.32 | 92 | 1006.3 |
| 20260507030504 | 52 | 274 | 0.9 | 5.2 | 0.03 | 0.32 | 0.32 | 92 | 1006.2 |
| 20260507030016 | 53 | 255 | 0.9 | 5.2 | 0.03 | 0.31 | 0.31 | 92 | 1006.2 |
| 20260507025508 | 53 | 301 | 1.7 | 4.3 | 0.03 | 0.30 | 0.30 | 92 | 1006.2 |
| 20260507025003 | 53 | 327 | 0.9 | 7.0 | 0.04 | 0.30 | 0.30 | 92 | 1006.2 |
| 20260507024515 | 54 | 259 | 0.9 | 7.0 | 0.05 | 0.30 | 0.30 | 92 | 1005.9 |
| 20260507024009 | 54 | 278 | 1.7 | 4.3 | 0.06 | 0.30 | 0.30 | 92 | 1005.7 |
| 20260507023502 | 54 | 263 | 0.9 | 4.3 | 0.08 | 0.30 | 0.30 | 92 | 1005.6 |
| 20260507023007 | 55 | 329 | 0.9 | 3.5 | 0.08 | 0.30 | 0.30 | 92 | 1005.6 |
| 20260507022504 | 55 | 252 | 1.7 | 6.1 | 0.08 | 0.30 | 0.30 | 92 | 1005.5 |
| 20260507022003 | 55 | 244 | 0.0 | 6.1 | 0.08 | 0.30 | 0.30 | 92 | 1005.4 |
| 20260507021504 | 55 | 71 | 0.9 | 4.3 | 0.08 | 0.30 | 0.30 | 92 | 1005.2 |
| 20260507021008 | 56 | 306 | 0.0 | 4.3 | 0.08 | 0.30 | 0.30 | 92 | 1005.1 |
| 20260507020504 | 56 | 306 | 0.0 | 4.3 | 0.07 | 0.29 | 0.29 | 92 | 1005.2 |
| 20260507020004 | 56 | 292 | 0.9 | 2.6 | 0.06 | 0.28 | 0.28 | 91 | 1005.2 |
| 20260507015504 | 57 | 223 | 0.9 | 2.6 | 0.05 | 0.27 | 0.27 | 91 | 1005.2 |
| 20260507015008 | 57 | 275 | 0.9 | 3.5 | 0.04 | 0.26 | 0.26 | 92 | 1005.1 |
| 20260507014516 | 58 | 240 | 0.0 | 3.5 | 0.03 | 0.25 | 0.25 | 93 | 1005.1 |
| 20260507014003 | 58 | 256 | 0.9 | 2.6 | 0.02 | 0.24 | 0.24 | 93 | 1004.9 |
| 20260507013507 | 58 | 125 | 0.0 | 1.7 | 0.00 | 0.22 | 0.22 | 92 | 1004.8 |
| 20260507013021 | 58 | 124 | 0.0 | 1.7 | 0.00 | 0.22 | 0.22 | 92 | 1004.8 |
| 20260507012507 | 58 | 122 | 0.0 | 1.7 | 0.00 | 0.22 | 0.22 | 92 | 1004.7 |
| 20260507012006 | 58 | 130 | 0.0 | 2.6 | 0.00 | 0.22 | 0.22 | 92 | 1004.7 |
| 20260507011508 | 58 | 280 | 0.0 | 3.5 | 0.00 | 0.22 | 0.22 | 92 | 1004.7 |
| 20260507011002 | 59 | 283 | 0.9 | 3.5 | 0.00 | 0.22 | 0.22 | 92 | 1004.7 |
| 20260507010503 | 59 | 40 | 0.9 | 2.6 | 0.00 | 0.22 | 0.22 | 92 | 1004.7 |
| 20260507010008 | 59 | 124 | 0.0 | 1.7 | 0.00 | 0.22 | 0.22 | 92 | 1004.7 |
| 20260507005506 | 59 | 124 | 0.0 | 1.7 | 0.00 | 0.22 | 0.22 | 92 | 1004.7 |
| 20260507005006 | 59 | 124 | 0.0 | 1.7 | 0.00 | 0.22 | 0.22 | 92 | 1004.8 |
| 20260507004509 | 59 | 136 | 0.0 | 1.7 | 0.00 | 0.22 | 0.22 | 92 | 1004.7 |
| 20260507004007 | 59 | 136 | 0.9 | 3.5 | 0.00 | 0.22 | 0.22 | 92 | 1004.7 |
| 20260507003508 | 59 | 55 | 0.9 | 3.5 | 0.00 | 0.22 | 0.22 | 92 | 1004.7 |
| 20260507003019 | 59 | 94 | 0.9 | 3.5 | 0.00 | 0.22 | 0.22 | 92 | 1004.7 |
| 20260507002503 | 59 | 335 | 0.0 | 2.6 | 0.00 | 0.22 | 0.22 | 92 | 1004.7 |
| 20260507002008 | 59 | 12 | 0.0 | 2.6 | 0.00 | 0.22 | 0.22 | 92 | 1004.8 |
| 20260507001548 | 59 | 12 | 0.9 | 2.6 | 0.00 | 0.22 | 0.22 | 92 | 1004.6 |
| 20260507001003 | 59 | 152 | 0.0 | 4.3 | 0.00 | 0.22 | 0.22 | 91 | 1004.6 |
| 20260507000507 | 59 | 155 | 0.0 | 4.3 | 0.00 | 0.22 | 0.22 | 91 | 1004.5 |
| 20260507000013 | 59 | 355 | 0.9 | 5.2 | 0.00 | 0.22 | 0.22 | 91 | 1004.4 |
| 20260506235504 | 59 | 129 | 0.0 | 5.2 | 0.00 | 0.22 | 0.22 | 91 | 1004.5 |
| 20260506235006 | 59 | 29 | 0.0 | 7.8 | 0.00 | 0.22 | 0.22 | 91 | 1004.4 |
| 20260506234511 | 59 | 97 | 1.7 | 7.8 | 0.00 | 0.22 | 0.22 | 91 | 1004.4 |
| 20260506234006 | 59 | 94 | 0.0 | 4.3 | 0.00 | 0.22 | 0.22 | 91 | 1004.5 |
| 20260506233507 | 59 | 78 | 0.9 | 4.3 | 0.00 | 0.22 | 0.22 | 91 | 1004.5 |
| 20260506233011 | 59 | 55 | 0.0 | 4.3 | 0.00 | 0.22 | 0.22 | 91 | 1004.5 |
| 20260506232508 | 59 | 63 | 0.9 | 3.5 | 0.00 | 0.22 | 0.22 | 91 | 1004.6 |
| 20260506232009 | 59 | 326 | 0.0 | 3.5 | 0.00 | 0.22 | 0.22 | 91 | 1004.5 |
| 20260506231509 | 59 | 68 | 0.9 | 3.5 | 0.00 | 0.22 | 0.22 | 91 | 1004.5 |
| 20260506231004 | 59 | 287 | 0.9 | 3.5 | 0.00 | 0.22 | 0.22 | 91 | 1004.4 |
| 20260506230511 | 59 | 5 | 0.9 | 3.5 | 0.00 | 0.22 | 0.22 | 91 | 1004.5 |
| 20260506230033 | 59 | 127 | 0.0 | 5.2 | 0.00 | 0.22 | 0.22 | 91 | 1004.5 |
| 20260506225503 | 59 | 360 | 1.7 | 5.2 | 0.00 | 0.22 | 0.22 | 91 | 1004.5 |
| 20260506225006 | 59 | 282 | 0.0 | 4.3 | 0.00 | 0.22 | 0.22 | 91 | 1004.5 |
| 20260506224510 | 59 | 360 | 0.0 | 4.3 | 0.00 | 0.22 | 0.22 | 91 | 1004.5 |
| 20260506224005 | 60 | 51 | 0.9 | 7.0 | 0.00 | 0.22 | 0.22 | 90 | 1004.6 |
| 20260506223506 | 60 | 75 | 2.6 | 7.0 | 0.00 | 0.22 | 0.22 | 91 | 1004.6 |
| 20260506223019 | 60 | 360 | 0.0 | 4.3 | 0.00 | 0.22 | 0.22 | 91 | 1004.7 |
| 20260506222510 | 60 | 98 | 1.7 | 6.1 | 0.00 | 0.22 | 0.22 | 91 | 1004.6 |
| 20260506222005 | 60 | 53 | 0.9 | 6.1 | 0.00 | 0.22 | 0.22 | 91 | 1004.7 |
| 20260506221516 | 60 | 80 | 0.9 | 3.5 | 0.00 | 0.22 | 0.22 | 91 | 1004.8 |
| 20260506221007 | 60 | 40 | 0.9 | 3.5 | 0.00 | 0.22 | 0.22 | 91 | 1004.8 |
| 20260506220507 | 60 | 227 | 0.0 | 4.3 | 0.00 | 0.22 | 0.22 | 91 | 1004.9 |
| 20260506220012 | 60 | 276 | 0.9 | 7.8 | 0.00 | 0.22 | 0.22 | 91 | 1004.8 |
| 20260506215508 | 60 | 49 | 1.7 | 7.8 | 0.00 | 0.22 | 0.22 | 91 | 1004.8 |
| 20260506215011 | 60 | 329 | 1.7 | 8.7 | 0.00 | 0.22 | 0.22 | 91 | 1004.8 |
| 20260506214523 | 60 | 5 | 0.9 | 8.7 | 0.00 | 0.22 | 0.22 | 91 | 1004.7 |
| 20260506214007 | 60 | 23 | 1.7 | 7.8 | 0.01 | 0.22 | 0.22 | 91 | 1004.8 |
| 20260506213513 | 60 | 294 | 0.9 | 10.4 | 0.01 | 0.22 | 0.22 | 91 | 1004.9 |
| 20260506213026 | 60 | 311 | 0.9 | 10.4 | 0.01 | 0.22 | 0.22 | 91 | 1004.9 |
| 20260506212504 | 60 | 5 | 1.7 | 10.4 | 0.02 | 0.22 | 0.22 | 91 | 1005.0 |
| 20260506212009 | 61 | 250 | 2.6 | 10.4 | 0.03 | 0.22 | 0.22 | 92 | 1004.9 |
| 20260506211520 | 61 | 42 | 0.9 | 11.3 | 0.03 | 0.22 | 0.22 | 92 | 1005.0 |
| 20260506211008 | 61 | 61 | 3.5 | 11.3 | 0.03 | 0.22 | 0.22 | 92 | 1005.0 |
| 20260506210512 | 61 | 280 | 0.0 | 5.2 | 0.04 | 0.22 | 0.22 | 92 | 1005.0 |
| 20260506210043 | 61 | 82 | 0.9 | 9.6 | 0.05 | 0.22 | 0.22 | 92 | 1005.1 |
| 20260506205508 | 61 | 322 | 0.9 | 9.6 | 0.05 | 0.22 | 0.22 | 92 | 1005.1 |
| 20260506205012 | 61 | 277 | 0.0 | 3.5 | 0.06 | 0.22 | 0.22 | 92 | 1005.1 |
| 20260506204515 | 61 | 13 | 0.0 | 3.5 | 0.06 | 0.22 | 0.22 | 92 | 1005.1 |
| 20260506204009 | 60 | 343 | 0.0 | 3.5 | 0.05 | 0.21 | 0.21 | 92 | 1005.2 |
| 20260506203511 | 60 | 102 | 0.9 | 3.5 | 0.05 | 0.21 | 0.21 | 92 | 1005.2 |
| 20260506203013 | 60 | 36 | 0.9 | 3.5 | 0.05 | 0.21 | 0.21 | 91 | 1005.3 |
| 20260506202509 | 60 | 61 | 1.7 | 7.8 | 0.04 | 0.20 | 0.20 | 91 | 1005.4 |
| 20260506202010 | 60 | 74 | 0.9 | 7.8 | 0.03 | 0.19 | 0.19 | 91 | 1005.4 |
| 20260506201526 | 60 | 154 | 1.7 | 5.2 | 0.04 | 0.19 | 0.19 | 91 | 1005.4 |
| 20260506201007 | 60 | 5 | 0.9 | 5.2 | 0.04 | 0.19 | 0.19 | 91 | 1005.4 |
| 20260506200506 | 60 | 45 | 0.0 | 4.3 | 0.03 | 0.18 | 0.18 | 91 | 1005.5 |
| 20260506200018 | 61 | 298 | 0.9 | 7.8 | 0.02 | 0.17 | 0.17 | 91 | 1005.5 |
| 20260506195508 | 61 | 108 | 0.0 | 7.8 | 0.02 | 0.17 | 0.17 | 91 | 1005.5 |
| 20260506195009 | 61 | 243 | 0.0 | 1.7 | 0.02 | 0.16 | 0.16 | 91 | 1005.6 |
| 20260506194527 | 61 | 243 | 0.0 | 1.7 | 0.03 | 0.16 | 0.16 | 91 | 1005.5 |
| 20260506194011 | 61 | 243 | 0.0 | 2.6 | 0.03 | 0.16 | 0.16 | 91 | 1005.5 |
| 20260506193507 | 61 | 48 | 0.0 | 2.6 | 0.04 | 0.16 | 0.16 | 92 | 1005.5 |
| 20260506193033 | 61 | 46 | 0.0 | 1.7 | 0.05 | 0.16 | 0.16 | 92 | 1005.5 |
| 20260506192511 | 61 | 46 | 0.0 | 2.6 | 0.06 | 0.16 | 0.16 | 92 | 1005.6 |
| 20260506192010 | 61 | 46 | 0.0 | 2.6 | 0.07 | 0.16 | 0.16 | 92 | 1005.6 |
| 20260506191518 | 61 | 46 | 0.0 | 1.7 | 0.07 | 0.15 | 0.15 | 92 | 1005.6 |
| 20260506191009 | 61 | 46 | 0.0 | 2.6 | 0.08 | 0.15 | 0.15 | 92 | 1005.9 |
| 20260506190509 | 61 | 46 | 0.0 | 2.6 | 0.09 | 0.15 | 0.15 | 91 | 1006.0 |
| 20260506190002 | 61 | 24 | 0.0 | 2.6 | 0.10 | 0.15 | 0.15 | 91 | 1006.1 |
| 20260506185505 | 61 | 112 | 0.0 | 3.5 | 0.11 | 0.15 | 0.15 | 91 | 1006.1 |
| 20260506185002 | 61 | 115 | 0.9 | 3.5 | 0.10 | 0.14 | 0.14 | 91 | 1006.4 |
| 20260506184504 | 61 | 248 | 0.9 | 1.7 | 0.10 | 0.13 | 0.13 | 91 | 1006.3 |
| 20260506184003 | 61 | 248 | 0.0 | 1.7 | 0.11 | 0.13 | 0.13 | 91 | 1006.5 |
| 20260506183503 | 61 | 248 | 0.0 | 1.7 | 0.10 | 0.12 | 0.12 | 90 | 1006.5 |
| 20260506183003 | 61 | 248 | 0.0 | 1.7 | 0.10 | 0.11 | 0.11 | 90 | 1006.5 |
| 20260506182506 | 62 | 265 | 0.0 | 1.7 | 0.09 | 0.10 | 0.10 | 90 | 1006.5 |
| 20260506182002 | 62 | 320 | 0.0 | 2.6 | 0.08 | 0.09 | 0.09 | 90 | 1006.7 |
| 20260506181503 | 62 | 15 | 0.0 | 3.5 | 0.07 | 0.08 | 0.08 | 90 | 1006.7 |
| 20260506181003 | 62 | 134 | 0.9 | 3.5 | 0.06 | 0.07 | 0.07 | 89 | 1006.8 |
| 20260506180503 | 63 | 36 | 0.0 | 2.6 | 0.05 | 0.06 | 0.06 | 89 | 1006.9 |
| 20260506180005 | 63 | 9 | 0.0 | 2.6 | 0.04 | 0.05 | 0.05 | 88 | 1006.8 |
| 20260506175502 | 63 | 291 | 0.0 | 2.6 | 0.03 | 0.04 | 0.04 | 88 | 1006.8 |
| 20260506175003 | 64 | 291 | 0.0 | 2.6 | 0.03 | 0.04 | 0.04 | 87 | 1006.8 |
| 20260506174502 | 64 | 112 | 0.0 | 0.9 | 0.02 | 0.03 | 0.03 | 86 | 1006.8 |
| 20260506174003 | 65 | 112 | 0.0 | 2.6 | 0.01 | 0.02 | 0.02 | 85 | 1006.8 |
| 20260506173506 | 66 | 112 | 0.0 | 2.6 | 0.01 | 0.02 | 0.02 | 83 | 1006.6 |
| 20260506173004 | 67 | 82 | 0.0 | 3.5 | 0.00 | 0.01 | 0.01 | 78 | 1006.4 |
| 20260506172503 | 67 | 175 | 0.9 | 6.1 | 0.00 | 0.01 | 0.01 | 75 | 1006.3 |
| 20260506172003 | 68 | 317 | 0.9 | 7.0 | 0.00 | 0.01 | 0.01 | 73 | 1006.3 |
| 20260506171503 | 68 | 82 | 1.7 | 7.0 | 0.00 | 0.01 | 0.01 | 72 | 1006.3 |
| 20260506171008 | 68 | 10 | 0.9 | 6.1 | 0.00 | 0.01 | 0.01 | 71 | 1006.2 |
| 20260506170502 | 68 | 298 | 0.9 | 4.3 | 0.00 | 0.01 | 0.01 | 71 | 1006.2 |
| 20260506170002 | 68 | 318 | 0.9 | 9.6 | 0.00 | 0.01 | 0.01 | 71 | 1006.4 |
| 20260506165503 | 68 | 32 | 0.9 | 9.6 | 0.00 | 0.01 | 0.01 | 70 | 1006.3 |
| 20260506165003 | 69 | 36 | 0.9 | 8.7 | 0.00 | 0.01 | 0.01 | 70 | 1006.4 |
| 20260506164517 | 69 | 267 | 0.9 | 9.6 | 0.00 | 0.01 | 0.01 | 71 | 1006.5 |
| 20260506164003 | 69 | 60 | 2.6 | 9.6 | 0.00 | 0.01 | 0.01 | 70 | 1006.5 |
| 20260506163503 | 69 | 51 | 2.6 | 9.6 | 0.00 | 0.01 | 0.01 | 70 | 1006.5 |
| 20260506163009 | 69 | 171 | 1.7 | 9.6 | 0.00 | 0.01 | 0.01 | 72 | 1006.6 |
| 20260506162508 | 68 | 64 | 2.6 | 7.0 | 0.00 | 0.01 | 0.01 | 71 | 1006.7 |
| 20260506162003 | 68 | 49 | 0.9 | 7.8 | 0.00 | 0.01 | 0.01 | 72 | 1006.8 |
| 20260506161504 | 68 | 294 | 2.6 | 7.8 | 0.00 | 0.01 | 0.01 | 72 | 1006.9 |
| 20260506161003 | 68 | 267 | 0.9 | 2.6 | 0.00 | 0.01 | 0.01 | 74 | 1007.1 |
| 20260506160503 | 67 | 286 | 0.0 | 2.6 | 0.00 | 0.01 | 0.01 | 74 | 1007.3 |
| 20260506160004 | 67 | 299 | 0.9 | 2.6 | 0.00 | 0.01 | 0.01 | 74 | 1007.5 |
| 20260506155503 | 67 | 355 | 0.0 | 3.5 | 0.00 | 0.01 | 0.01 | 74 | 1007.6 |
| 20260506155003 | 67 | 324 | 0.9 | 5.2 | 0.00 | 0.01 | 0.01 | 74 | 1007.8 |
| 20260506154504 | 67 | 221 | 0.9 | 7.8 | 0.00 | 0.01 | 0.01 | 73 | 1007.9 |
| 20260506154003 | 67 | 186 | 2.6 | 7.8 | 0.00 | 0.01 | 0.01 | 74 | 1008.0 |
| 20260506153503 | 67 | 355 | 1.7 | 7.0 | 0.00 | 0.01 | 0.01 | 74 | 1008.1 |
| 20260506153004 | 67 | 65 | 1.7 | 7.8 | 0.00 | 0.01 | 0.01 | 74 | 1008.1 |
| 20260506152503 | 67 | 80 | 1.7 | 7.8 | 0.00 | 0.01 | 0.01 | 75 | 1008.1 |
| 20260506152003 | 67 | 35 | 2.6 | 7.0 | 0.00 | 0.01 | 0.01 | 75 | 1008.2 |
| 20260506151504 | 67 | 35 | 0.0 | 3.5 | 0.00 | 0.01 | 0.01 | 76 | 1008.3 |
| 20260506151003 | 67 | 105 | 0.0 | 7.8 | 0.00 | 0.01 | 0.01 | 76 | 1008.2 |
| 20260506150503 | 67 | 86 | 0.9 | 7.8 | 0.00 | 0.01 | 0.01 | 75 | 1008.0 |
| 20260506150004 | 67 | 338 | 0.9 | 5.2 | 0.00 | 0.01 | 0.01 | 76 | 1008.0 |
| 20260506145503 | 67 | 60 | 2.6 | 5.2 | 0.00 | 0.01 | 0.01 | 74 | 1008.1 |
| 20260506145003 | 67 | 271 | 1.7 | 5.2 | 0.00 | 0.01 | 0.01 | 75 | 1008.3 |
| 20260506144511 | 68 | 51 | 1.7 | 4.3 | 0.00 | 0.01 | 0.01 | 75 | 1008.1 |
| 20260506144004 | 67 | 262 | 0.9 | 6.1 | 0.00 | 0.01 | 0.01 | 76 | 1008.0 |
| 20260506143504 | 67 | 88 | 1.7 | 6.1 | 0.00 | 0.01 | 0.01 | 76 | 1007.9 |
| 20260506143003 | 66 | 299 | 0.9 | 2.6 | 0.00 | 0.01 | 0.01 | 78 | 1008.1 |
| 20260506142503 | 65 | 281 | 0.0 | 2.6 | 0.00 | 0.01 | 0.01 | 81 | 1008.0 |
| 20260506142002 | 65 | 265 | 0.9 | 2.6 | 0.00 | 0.01 | 0.01 | 80 | 1008.0 |
| 20260506141516 | 64 | 49 | 0.9 | 2.6 | 0.00 | 0.01 | 0.01 | 81 | 1008.1 |
| 20260506141003 | 64 | 252 | 0.9 | 3.5 | 0.00 | 0.01 | 0.01 | 80 | 1008.0 |
| 20260506140504 | 64 | 262 | 0.9 | 3.5 | 0.00 | 0.01 | 0.01 | 81 | 1008.0 |
| 20260506140004 | 64 | 272 | 0.9 | 3.5 | 0.00 | 0.01 | 0.01 | 81 | 1008.1 |
| 20260506135503 | 63 | 293 | 0.9 | 3.5 | 0.00 | 0.01 | 0.01 | 81 | 1008.1 |
| 20260506135003 | 63 | 178 | 0.9 | 3.5 | 0.00 | 0.01 | 0.01 | 81 | 1008.2 |
| 20260506134504 | 63 | 263 | 0.0 | 2.6 | 0.00 | 0.01 | 0.01 | 81 | 1008.2 |
| 20260506134003 | 63 | 256 | 0.9 | 3.5 | 0.00 | 0.01 | 0.01 | 82 | 1008.2 |
| 20260506133504 | 63 | 277 | 0.9 | 3.5 | 0.00 | 0.01 | 0.01 | 82 | 1008.2 |
| 20260506133006 | 63 | 143 | 0.9 | 4.3 | 0.00 | 0.01 | 0.01 | 82 | 1008.4 |
| 20260506132509 | 63 | 117 | 0.9 | 7.0 | 0.00 | 0.01 | 0.01 | 82 | 1008.4 |
| 20260506132005 | 63 | 11 | 0.9 | 7.0 | 0.00 | 0.01 | 0.01 | 83 | 1008.5 |
| 20260506131507 | 63 | 207 | 0.0 | 3.5 | 0.00 | 0.01 | 0.01 | 83 | 1008.5 |
| 20260506131004 | 62 | 84 | 0.9 | 4.3 | 0.00 | 0.01 | 0.01 | 82 | 1008.5 |
| 20260506130506 | 62 | 360 | 0.0 | 4.3 | 0.00 | 0.01 | 0.01 | 82 | 1008.6 |
| 20260506130006 | 62 | 315 | 0.9 | 3.5 | 0.00 | 0.01 | 0.01 | 82 | 1008.6 |
| 20260506125510 | 62 | 262 | 0.9 | 3.5 | 0.00 | 0.01 | 0.01 | 83 | 1008.6 |
| 20260506125005 | 62 | 25 | 0.0 | 3.5 | 0.00 | 0.01 | 0.01 | 83 | 1008.4 |
| 20260506124506 | 62 | 311 | 0.9 | 2.6 | 0.00 | 0.01 | 0.01 | 83 | 1008.5 |
| 20260506124004 | 62 | 68 | 0.0 | 2.6 | 0.00 | 0.01 | 0.01 | 83 | 1008.5 |
| 20260506123503 | 62 | 98 | 0.9 | 3.5 | 0.00 | 0.01 | 0.01 | 83 | 1008.5 |
| 20260506123012 | 61 | 71 | 0.0 | 3.5 | 0.00 | 0.01 | 0.01 | 84 | 1008.5 |
| 20260506122507 | 61 | 42 | 0.9 | 3.5 | 0.00 | 0.01 | 0.01 | 84 | 1008.6 |
| 20260506122005 | 61 | 327 | 0.0 | 1.7 | 0.00 | 0.01 | 0.01 | 85 | 1008.6 |
| 20260506121512 | 61 | 80 | 0.0 | 2.6 | 0.00 | 0.01 | 0.01 | 85 | 1008.6 |
| 20260506121008 | 60 | 40 | 0.0 | 2.6 | 0.00 | 0.01 | 0.01 | 86 | 1008.7 |
| 20260506120505 | 60 | 47 | 0.0 | 2.6 | 0.00 | 0.01 | 0.01 | 87 | 1008.8 |
| 20260506120015 | 59 | 76 | 0.9 | 1.7 | 0.00 | 0.01 | 0.01 | 88 | 1008.8 |
| 20260506115507 | 59 | 76 | 0.0 | 4.3 | 0.00 | 0.01 | 0.01 | 89 | 1008.9 |
| 20260506115005 | 58 | 5 | 0.9 | 4.3 | 0.00 | 0.01 | 0.01 | 90 | 1008.9 |
| 20260506114509 | 58 | 321 | 0.0 | 3.5 | 0.00 | 0.01 | 0.01 | 92 | 1009.1 |
| 20260506114010 | 57 | 42 | 0.9 | 3.5 | 0.00 | 0.01 | 0.01 | 93 | 1009.1 |
| 20260506113508 | 56 | 63 | 0.0 | 3.5 | 0.00 | 0.01 | 0.01 | 94 | 1009.1 |
| 20260506113008 | 56 | 65 | 0.9 | 3.5 | 0.00 | 0.01 | 0.01 | 95 | 1009.1 |
| 20260506112510 | 55 | 73 | 0.0 | 3.5 | 0.00 | 0.01 | 0.01 | 95 | 1009.2 |
| 20260506112005 | 54 | 71 | 0.9 | 3.5 | 0.00 | 0.01 | 0.01 | 95 | 1009.0 |
| 20260506111508 | 53 | 109 | 0.0 | 1.7 | 0.00 | 0.01 | 0.01 | 95 | 1009.2 |
| 20260506111004 | 53 | 110 | 0.0 | 3.5 | 0.00 | 0.01 | 0.01 | 95 | 1009.2 |
| 20260506110504 | 52 | 110 | 0.9 | 3.5 | 0.00 | 0.01 | 0.01 | 95 | 1009.1 |
| 20260506110010 | 51 | 128 | 0.0 | 1.7 | 0.00 | 0.01 | 0.01 | 95 | 1009.1 |
| 20260506105505 | 51 | 128 | 0.0 | 0.9 | 0.00 | 0.01 | 0.01 | 95 | 1009.2 |
| 20260506105005 | 50 | 128 | 0.0 | 0.9 | 0.00 | 0.01 | 0.01 | 95 | 1009.3 |
| 20260506104526 | 50 | 128 | 0.0 | 0.9 | 0.00 | 0.01 | 0.01 | 95 | 1009.1 |
| 20260506104009 | 50 | 128 | 0.0 | 0.9 | 0.00 | 0.01 | 0.01 | 94 | 1009.2 |
| 20260506103505 | 50 | 128 | 0.0 | 0.9 | 0.00 | 0.01 | 0.01 | 94 | 1009.3 |
| 20260506103032 | 50 | 128 | 0.0 | 1.7 | 0.00 | 0.01 | 0.01 | 94 | 1009.1 |
| 20260506102511 | 50 | 128 | 0.0 | 1.7 | 0.00 | 0.01 | 0.01 | 94 | 1009.0 |
| 20260506102008 | 49 | 128 | 0.0 | 1.7 | 0.00 | 0.01 | 0.01 | 94 | 1009.0 |
| 20260506101514 | 49 | 128 | 0.0 | 0.9 | 0.00 | 0.01 | 0.01 | 94 | 1009.1 |
| 20260506101008 | 49 | 128 | 0.0 | 1.7 | 0.00 | 0.01 | 0.01 | 94 | 1009.2 |
| 20260506100506 | 49 | 128 | 0.0 | 1.7 | 0.00 | 0.01 | 0.01 | 94 | 1008.9 |
| 20260506100005 | 49 | 128 | 0.0 | 1.7 | 0.00 | 0.01 | 0.01 | 94 | 1008.9 |
| 20260506095503 | 49 | 128 | 0.0 | 0.9 | 0.00 | 0.01 | 0.01 | 94 | 1009.0 |
| 20260506095004 | 49 | 128 | 0.0 | 0.0 | 0.00 | 0.01 | 0.01 | 94 | 1009.1 |
| 20260506094504 | 49 | 128 | 0.0 | 0.0 | 0.00 | 0.01 | 0.01 | 94 | 1009.1 |
| 20260506094002 | 49 | 128 | 0.0 | 0.0 | 0.00 | 0.01 | 0.01 | 94 | 1008.9 |
| 20260506093503 | 49 | 128 | 0.0 | 0.0 | 0.00 | 0.01 | 0.01 | 94 | 1009.0 |
| 20260506093005 | 49 | 128 | 0.0 | 0.0 | 0.00 | 0.01 | 0.01 | 94 | 1009.0 |
| 20260506092503 | 49 | 128 | 0.0 | 0.0 | 0.00 | 0.01 | 0.01 | 94 | 1008.9 |
| 20260506092003 | 50 | 128 | 0.0 | 0.0 | 0.00 | 0.01 | 0.01 | 93 | 1009.0 |
| 20260506091512 | 50 | 128 | 0.0 | 0.0 | 0.00 | 0.01 | 0.01 | 93 | 1009.0 |
| 20260506091003 | 50 | 128 | 0.0 | 0.0 | 0.00 | 0.01 | 0.01 | 93 | 1009.0 |
| 20260506090504 | 50 | 128 | 0.0 | 0.0 | 0.00 | 0.01 | 0.01 | 93 | 1009.1 |
| 20260506090010 | 50 | 128 | 0.0 | 0.0 | 0.00 | 0.01 | 0.01 | 93 | 1009.0 |
| 20260506085506 | 50 | 128 | 0.0 | 0.0 | 0.00 | 0.01 | 0.01 | 93 | 1009.0 |
| 20260506085004 | 51 | 128 | 0.0 | 0.0 | 0.00 | 0.01 | 0.01 | 93 | 1008.9 |
| 20260506084511 | 51 | 128 | 0.0 | 0.0 | 0.00 | 0.01 | 0.01 | 94 | 1009.0 |
| 20260506084003 | 51 | 128 | 0.0 | 0.0 | 0.00 | 0.01 | 0.01 | 93 | 1009.1 |
| 20260506083504 | 51 | 128 | 0.0 | 0.0 | 0.00 | 0.01 | 0.01 | 93 | 1009.2 |
| 20260506083006 | 51 | 128 | 0.0 | 0.0 | 0.00 | 0.01 | 0.01 | 93 | 1009.1 |
| 20260506082503 | 51 | 128 | 0.0 | 0.0 | 0.00 | 0.01 | 0.01 | 93 | 1009.2 |
| 20260506082004 | 51 | 128 | 0.0 | 0.0 | 0.00 | 0.01 | 0.01 | 93 | 1009.0 |
| 20260506081503 | 51 | 128 | 0.0 | 0.0 | 0.00 | 0.01 | 0.01 | 93 | 1008.8 |
| 20260506081008 | 52 | 128 | 0.0 | 0.0 | 0.00 | 0.01 | 0.01 | 93 | 1008.9 |
| 20260506080505 | 52 | 128 | 0.0 | 0.0 | 0.00 | 0.01 | 0.01 | 93 | 1008.9 |
| 20260506073506 | 53 | 128 | 0.0 | 0.0 | 0.00 | 0.01 | 0.01 | 94 | 1008.8 |
| 20260506073014 | 53 | 128 | 0.0 | 0.0 | 0.00 | 0.01 | 0.01 | 94 | 1008.8 |
| 20260506072510 | 53 | 128 | 0.0 | 0.0 | 0.00 | 0.01 | 0.01 | 94 | 1008.9 |
| 20260506072002 | 53 | 128 | 0.0 | 0.0 | 0.00 | 0.01 | 0.01 | 94 | 1008.8 |
| 20260506071506 | 53 | 128 | 0.0 | 0.0 | 0.00 | 0.01 | 0.01 | 94 | 1008.7 |
| 20260506071005 | 53 | 128 | 0.0 | 0.0 | 0.00 | 0.01 | 0.01 | 94 | 1008.7 |
| 20260506070502 | 53 | 128 | 0.0 | 0.0 | 0.00 | 0.01 | 0.01 | 94 | 1008.7 |
| 20260506062502 | 53 | 128 | 0.0 | 0.9 | 0.01 | 0.01 | 0.01 | 94 | 1008.3 |
| 20260506062006 | 53 | 128 | 0.0 | 0.9 | 0.01 | 0.01 | 0.01 | 94 | 1008.2 |
| 20260506061518 | 53 | 128 | 0.0 | 0.9 | 0.01 | 0.01 | 0.01 | 94 | 1008.2 |
| 20260506061009 | 53 | 128 | 0.0 | 1.7 | 0.01 | 0.01 | 0.01 | 94 | 1008.2 |